"Pseudo-MPEC" for P12i60N

Created 2025 Dec 5 22:35:07 UT using Find_Orb

Click here for an explanation of pseudo-MPECs

 
 Astrometry: 
     P12i60N* C2025 11 28.52121204 51 03.311+08 29 42.86   ~BTGZ 22.48wXNEOCPF51
     P12i60N  C2025 11 28.53310604 51 02.145+08 29 43.22   ~BTGZ 22.60wXNEOCPF51
     P12i60N  C2025 11 28.54500504 51 00.973+08 29 43.31   ~BTGZ 22.39wXNEOCPF51
     P12i60N  C2025 11 28.55692704 50 59.791+08 29 43.77   ~BTGZ 22.37wXNEOCPF51

Station data:
(F51) Pan-STARRS 1, Haleakala  (N20.707234 W156.255910)  US/Hawaii.
   Observers J. Herman, T. Lowe, P. Minguez, A. Schultz, I. Smith. Measurers
   K. Chambers, T. de Boer, J. Fairlamb, H. Gao, M. Huber, C.-C. Lin, E.
   Magnier, Y. Ramanjooloo, R. Wainscoat, R. Weryk. 1.8-m Ritchey-Chrétien +
   CCD.

Orbital elements:  P12i60N
   Perihelion 2025 Apr 26.054463 +/- 270 TT =  1:18:25.5 (JD 2460791.554463)
Epoch 2025 Nov 29.0 TT = JDT 2461008.5   Earth MOID: 0.2074   Ve: 0.0322
M  75.676925407 +/- 80              (J2000 ecliptic)             AutoNEOCP
n   0.348829140 +/- 0.227           Peri.  172.737428 +/- 57
a   1.998607642 +/- 0.866           Node   110.757782 +/- 41
e   0.66423451 +/- 0.259            Incl.   12.760267 +/- 54
P   2.82547                H 19.00  G  0.15   U 11.8  SR
q 0.671063473 +/- 0.939    Q 3.326151812 +/- 25.5
From 4 observations 2025 Nov. 28 (51.4 min); mean residual 0".07
Residuals in arcseconds: 
251128 F51  .06-  .01-    251128 F51  .06+  .12-    
251128 F51  .05+  .07+    251128 F51  .06-  .06+    

Ephemerides (geocentric):
Date (UTC) HH   RA             Dec           delta  r     elong  mag " sig PA
---- --------  ------------   ------------  ------ ------ -----  --- --------
2025 12 05 23  04 39 18.190   +08 36 15.74  1.5523 2.5196 166.0 22.4  18d  95
2025 12 06 00  04 39 14.348   +08 36 19.03  1.5526 2.5198 165.9 22.4  18d  95
2025 12 06 01  04 39 10.507   +08 36 22.33  1.5529 2.5201 165.9 22.4  18d  95
2025 12 06 02  04 39 06.669   +08 36 25.64  1.5532 2.5203 165.9 22.4  18d  95
2025 12 06 03  04 39 02.831   +08 36 28.96  1.5535 2.5206 165.9 22.4  18d  95
2025 12 06 04  04 38 58.996   +08 36 32.30  1.5537 2.5208 165.9 22.4  18d  95
2025 12 06 05  04 38 55.162   +08 36 35.64  1.5540 2.5211 165.9 22.4  18d  95
2025 12 06 06  04 38 51.330   +08 36 39.00  1.5543 2.5213 165.8 22.4  18d  95
2025 12 06 07  04 38 47.499   +08 36 42.37  1.5546 2.5215 165.8 22.4  18d  95
2025 12 06 08  04 38 43.670   +08 36 45.76  1.5549 2.5218 165.8 22.4  18d  95
2025 12 06 09  04 38 39.842   +08 36 49.15  1.5552 2.5220 165.8 22.4  18d  95
2025 12 06 10  04 38 36.017   +08 36 52.56  1.5555 2.5223 165.8 22.4  18d  95
2025 12 06 11  04 38 32.193   +08 36 55.98  1.5558 2.5225 165.8 22.4  18d  95
2025 12 06 12  04 38 28.370   +08 36 59.41  1.5561 2.5228 165.8 22.4  18d  95
2025 12 06 13  04 38 24.549   +08 37 02.86  1.5564 2.5230 165.7 22.4  18d  95
2025 12 06 14  04 38 20.730   +08 37 06.31  1.5567 2.5233 165.7 22.4  18d  95
2025 12 06 15  04 38 16.913   +08 37 09.78  1.5570 2.5235 165.7 22.4  18d  95
2025 12 06 16  04 38 13.097   +08 37 13.26  1.5573 2.5238 165.7 22.4  18d  95
2025 12 06 17  04 38 09.283   +08 37 16.75  1.5576 2.5240 165.7 22.4  18d  95
2025 12 06 18  04 38 05.470   +08 37 20.25  1.5579 2.5242 165.6 22.4  18d  95
2025 12 06 19  04 38 01.660   +08 37 23.77  1.5582 2.5245 165.6 22.4  18d  95
2025 12 06 20  04 37 57.851   +08 37 27.30  1.5585 2.5247 165.6 22.4  18d  95
2025 12 06 21  04 37 54.043   +08 37 30.84  1.5588 2.5250 165.6 22.4  19d  95
2025 12 06 22  04 37 50.238   +08 37 34.39  1.5591 2.5252 165.6 22.4  19d  95
2025 12 06 23  04 37 46.434   +08 37 37.95  1.5594 2.5255 165.6 22.4  19d  95
2025 12 07 00  04 37 42.632   +08 37 41.53  1.5597 2.5257 165.5 22.4  19d  94
2025 12 07 01  04 37 38.831   +08 37 45.12  1.5600 2.5260 165.5 22.4  20d  94
2025 12 07 02  04 37 35.033   +08 37 48.72  1.5603 2.5262 165.5 22.4  20d  94
2025 12 07 03  04 37 31.236   +08 37 52.33  1.5606 2.5264 165.5 22.4  20d  94
2025 12 07 04  04 37 27.440   +08 37 55.95  1.5609 2.5267 165.5 22.4  20d  94
2025 12 07 05  04 37 23.647   +08 37 59.59  1.5612 2.5269 165.4 22.4  21d  94
2025 12 07 06  04 37 19.855   +08 38 03.24  1.5615 2.5272 165.4 22.4  21d  95
2025 12 07 07  04 37 16.065   +08 38 06.90  1.5618 2.5274 165.4 22.4  21d  95
2025 12 07 08  04 37 12.277   +08 38 10.57  1.5621 2.5277 165.4 22.4  21d  95
2025 12 07 09  04 37 08.491   +08 38 14.25  1.5624 2.5279 165.3 22.4  22d  95
2025 12 07 10  04 37 04.706   +08 38 17.95  1.5628 2.5282 165.3 22.4  22d  95
2025 12 07 11  04 37 00.923   +08 38 21.66  1.5631 2.5284 165.3 22.4  22d  95
2025 12 07 12  04 36 57.142   +08 38 25.38  1.5634 2.5286 165.3 22.4  22d  95
2025 12 07 13  04 36 53.363   +08 38 29.11  1.5637 2.5289 165.3 22.4  22d  95
2025 12 07 14  04 36 49.586   +08 38 32.85  1.5640 2.5291 165.2 22.4  22d  95
2025 12 07 15  04 36 45.810   +08 38 36.61  1.5643 2.5294 165.2 22.4  23d  95
2025 12 07 16  04 36 42.036   +08 38 40.38  1.5646 2.5296 165.2 22.4  23d  95
2025 12 07 17  04 36 38.265   +08 38 44.16  1.5649 2.5299 165.2 22.4  23d  95
2025 12 07 18  04 36 34.494   +08 38 47.95  1.5652 2.5301 165.2 22.4  23d  95
2025 12 07 19  04 36 30.726   +08 38 51.75  1.5656 2.5304 165.1 22.4  23d  95
2025 12 07 20  04 36 26.960   +08 38 55.57  1.5659 2.5306 165.1 22.4  23d  95
2025 12 07 21  04 36 23.195   +08 38 59.39  1.5662 2.5308 165.1 22.4  23d  95
2025 12 07 22  04 36 19.432   +08 39 03.23  1.5665 2.5311 165.1 22.4  23d  95